CAPE
209 226 170 42 0 10 50 17 0 0 22 0 0 134 284 490 830 1117 1406 1749 1763 1882 1889 1314 1075 1035 797 1019 624 1029 807 116 297 39 123 78 385 322 200 207 237 531 676
224 235 224 164 0 0 34 24 0 7 137 0 0 35 247 517 789 982 1345 1558 1718 1933 1644 1612 1298 838 760 879 822 1047 555 192 113 58 40 36 10 29 106 210 307 397 515
249 234 266 239 131 2 64 61 29 16 107 0 0 411 663 855 983 979 959 1203 1575 1780 1741 1230 1317 1355 869 839 1072 1026 1026 153 193 336 84 6 40 32 108 517 395 509 391
207 312 251 289 252 81 84 116 142 51 33 81 68 455 306 178 108 411 534 677 1338 1456 1615 1518 1187 1400 1252 919 946 964 1075 1026 51 2 8 140 151 123 346 175 428 662 540
257 215 370 370 326 290 109 184 224 161 18 151 97 410 423 0 77 176 680 1124 1282 1498 1349 1652 1655 1660 1316 1190 1126 907 1132 1040 622 4 0 278 152 440 280 226 261 286 418
376 351 286 351 439 316 169 94 249 374 251 84 57 144 205 117 239 366 309 479 622 843 1241 1385 1739 1499 1140 1392 1424 1486 1210 1458 1088 559 122 0 57 144 347 393 437 431 389
560 483 391 308 350 424 321 188 394 710 541 386 91 87 381 731 884 890 573 290 201 271 439 1459 1566 1452 1642 1521 1532 1627 1609 1163 1455 1581 498 305 233 250 100 101 197 310 270
533 603 562 460 364 413 410 331 538 786 611 557 524 497 651 479 648 781 484 475 253 142 212 942 1237 1409 1373 1709 1857 1728 1411 1650 1346 1759 1570 785 773 753 433 291 197 172 129
371 481 596 582 508 440 481 499 660 963 866 473 928 917 835 633 359 709 791 650 614 432 513 560 869 877 1135 1427 1778 1625 1887 1945 2059 1958 2046 1958 1119 1059 971 722 399 182 125
153 337 476 597 611 554 501 483 679 951 861 644 760 742 830 872 739 668 819 884 688 752 571 608 447 607 1059 1280 1640 1244 1603 2157 1966 1669 1678 1974 1189 1398 1446 1173 762 727 624
0 138 419 591 687 663 651 642 611 759 819 812 838 872 783 809 874 642 845 1148 1174 1025 1186 827 755 471 843 1285 1635 1529 1247 1671 2202 2272 2304 2437 2366 1493 1036 1246 1242 918 851
0 24 303 676 740 773 719 745 700 649 797 898 1120 962 989 973 784 966 908 1082 1263 1367 1355 1240 1137 866 753 1207 1640 1634 1089 1658 2025 2261 2482 2627 2619 2780 2704 1856 1506 1405 1504
0 15 84 451 805 821 879 794 768 680 596 811 853 894 964 940 992 1078 1152 1077 1244 1380 1430 1390 1285 1164 744 762 1264 1525 1559 1560 1838 2256 2451 2612 2778 2817 2619 2436 1881 1605 1731
0 2 96 239 796 965 1087 1019 819 733 547 522 662 964 1192 1206 1009 1246 1367 1337 1379 1471 1481 1512 1415 1308 1076 655 640 856 1356 1510 1627 2006 2380 2598 2696 2751 2844 2974 2857 2678 2464
2 2 88 164 485 965 1188 1203 927 930 797 759 712 1057 1362 1410 1496 1556 1560 1521 1519 1478 1555 1609 1530 1406 1233 725 732 583 599 1039 1549 1717 1875 2128 2233 2173 2442 2519 2566 2591 2369
24 60 77 5 104 547 1137 1394 1291 1085 1127 1155 1017 1179 1568 1591 1577 1706 1705 1697 1632 1632 1691 1634 1630 1456 1204 561 258 470 534 631 970 1233 1469 1714 1822 1954 1725 1587 1564 1774 2381
17 96 140 298 105 221 700 1207 1460 1294 1317 1493 1343 1429 1625 1689 1699 1672 1775 1778 1776 1799 1805 1804 1763 1655 1662 1041 415 250 444 448 803 1237 1269 1069 573 867 1369 1571 1616 1538 1313
0 70 179 205 352 297 309 847 1069 1443 1575 1571 1627 1659 1765 1782 1857 1846 1929 1970 1886 1930 1899 1853 1876 1845 1789 1334 845 375 618 898 1090 1220 1476 1573 1407 1450 1310 1296 1441 1741 1859
0 9 133 279 484 673 344 547 911 1299 1474 1597 1686 1765 1771 1837 1902 1917 1978 1973 2044 2043 2076 2110 2137 2078 2028 1475 1023 690 850 835 1160 1433 1664 1897 1941 1918 1439 1363 1276 1440 1552
0 7 238 626 1225 1175 642 540 967 1345 1634 1697 1646 1753 1810 1907 1939 2045 2034 2026 1968 1885 1759 1821 1952 1985 2105 1948 1044 751 1047 917 919 1328 1864 1578 1647 1919 1692 1653 1598 1641 1730
0 0 317 902 1606 844 532 855 1099 1377 1692 1490 1416 1556 1668 1983 2041 2140 2136 2149 2002 1906 2068 2032 2047 2050 2033 2087 1377 837 1225 958 990 1066 1058 1473 1447 1450 1231 1191 1988 2161 2290
0 0 82 650 1622 990 602 1383 1412 1397 1594 1524 1479 1687 1802 1645 1693 2034 2140 2157 2207 2263 2393 2330 2306 2216 2464 2164 1824 1030 919 1333 1504 1567 1776 2100 2051 1758 1594 1350 1409 1369 1429
0 0 0 248 955 1629 1058 1290 1466 1518 1591 1650 1742 1792 1870 1803 1697 2055 2189 2181 2285 2194 2341 2316 2382 2302 2333 2779 2255 1515 1219 1102 1322 2092 2638 2473 2362 2164 1865 1612 1627 1521 1958
0 0 0 0 0 318 1114 1607 1711 1584 1677 1789 1914 1975 2099 2083 1907 2105 2280 2265 2204 2228 2113 2254 2253 2351 2412 2588 2939 2652 1678 1257 1257 1348 1922 2488 2562 2550 2780 2872 2226 2132 2630
0 0 0 0 0 0 0 257 1580 1499 1504 1765 1868 1992 2092 2052 2277 2187 2200 2234 2296 2306 2414 2278 2446 2557 2763 2887 3018 3269 3536 3073 2214 2145 2501 2638 2615 2687 2752 2863 3127 3368 3413
0 0 0 0 0 0 0 0 9 1206 2156 2017 1723 1666 1627 1878 1875 2011 2074 1219 993 1116 1519 1837 2309 2879 2798 2705 2737 2830 2868 2827 2577 2561 2916 3035 2807 2595 2630 2659 2768 2830 2848
CIN
-67 -56 -61 -94 0 -145 -128 -144 0 0 -101 0 0 -48 -21 -7 -2 0 -4 -6 -2 -2 -4 -2 -5 -3 -3 -1 -6 -1 -5 -31 -6 -3 -44 -81 -2 -7 -28 -24 -25 -4 -2
-58 -59 -64 -60 0 0 -133 -159 0 -97 -84 0 0 -40 -14 -1 -1 -2 -5 -4 -6 -2 -4 -2 -3 -7 -6 -9 -7 -6 -2 -7 -40 -6 -3 -2 -3 -42 -45 -20 -24 -26 -18
-81 -72 -66 -71 -71 -42 -132 -136 -154 -162 -105 0 0 -29 -3 -2 -1 -4 -4 -5 -6 -2 -2 -10 -7 -2 -9 -3 -1 -1 -2 -11 -10 -7 -11 -2 -3 -32 -32 -4 -14 -11 -25
-88 -54 -64 -78 -100 -132 -113 -110 -113 -144 -148 -116 -96 -28 -27 -33 -36 -5 -1 -1 -8 -5 -1 -5 -15 -8 -4 -16 -4 -3 -1 -9 -3 -15 -88 -26 -26 -22 -2 -34 -20 -15 -44
-84 -81 -83 -93 -101 -80 -109 -98 -94 -113 -211 -109 -95 -46 -19 0 -29 -10 -2 -4 -4 -8 -7 -6 -2 -2 -1 -2 -5 -13 -13 -3 -2 -6 0 -12 -15 -10 -27 -12 -24 -52 -53
-104 -99 -86 -56 -49 -56 -80 -94 -90 -96 -115 -177 -184 -104 -64 -60 -18 -34 -24 -10 -5 -3 -10 -3 -6 -10 -4 -2 -1 0 -12 -3 -2 -2 -52 0 -58 -40 -16 -19 -26 -46 -70
-78 -94 -84 -90 -82 -73 -88 -109 -83 -69 -77 -103 -183 -162 -80 -30 -14 -18 -26 -17 -23 -21 -12 -7 -10 -4 -5 -1 -1 -1 -1 -9 -1 -9 -4 -26 -50 -62 -114 -125 -97 -89 -117
-73 -83 -103 -96 -112 -111 -117 -130 -116 -101 -81 -80 -96 -100 -66 -52 -31 -25 -18 -25 -43 -48 -63 -14 -8 -9 -2 -1 -1 -3 -1 -1 -4 -1 -1 -3 -12 -27 -92 -127 -146 -155 -166
-71 -93 -111 -112 -108 -132 -124 -142 -127 -110 -90 -118 -50 -45 -55 -56 -61 -33 -35 -41 -39 -42 -52 -52 -33 -23 -13 -6 -1 -2 -1 0 0 -1 -1 -1 -13 -23 -49 -103 -164 -203 -207
-45 -80 -111 -126 -126 -119 -132 -143 -143 -141 -119 -105 -81 -69 -66 -49 -55 -47 -49 -38 -47 -49 -65 -76 -94 -70 -23 -17 -9 -1 -1 -1 -1 -1 -1 -1 -32 -26 -32 -69 -136 -150 -170
0 -76 -107 -144 -145 -129 -110 -128 -144 -144 -115 -103 -93 -75 -80 -80 -70 -62 -62 -48 -51 -50 -46 -69 -80 -115 -54 -18 -11 -8 -5 -1 -1 0 -1 -1 -1 -48 -84 -71 -91 -139 -159
0 -63 -71 -112 -138 -152 -135 -138 -144 -154 -164 -139 -111 -118 -91 -76 -74 -65 -55 -58 -66 -68 -68 -60 -61 -91 -94 -30 -13 -13 -8 -7 -3 -1 0 -1 -1 0 -2 -43 -82 -92 -93
0 -57 -70 -89 -126 -160 -167 -155 -136 -138 -158 -163 -157 -140 -130 -100 -85 -85 -76 -72 -81 -84 -75 -77 -82 -89 -123 -113 -53 -29 -17 -13 -9 -3 -1 -1 -1 -1 -6 -18 -54 -73 -79
0 -66 -83 -93 -131 -154 -177 -175 -155 -117 -129 -167 -166 -151 -140 -117 -121 -99 -92 -89 -89 -86 -92 -93 -101 -100 -111 -144 -131 -96 -55 -36 -23 -6 -5 -1 -2 -7 -8 -8 -16 -23 -47
-119 -17 -142 -120 -132 -156 -168 -209 -179 -148 -121 -127 -157 -150 -132 -118 -105 -93 -95 -90 -92 -102 -102 -92 -95 -103 -109 -150 -155 -148 -131 -98 -65 -40 -40 -29 -38 -54 -43 -27 -30 -25 -40
-247 -238 -209 -208 -161 -173 -198 -211 -216 -208 -153 -142 -148 -143 -131 -136 -118 -108 -100 -99 -100 -113 -101 -111 -105 -113 -134 -188 -240 -189 -143 -140 -113 -101 -92 -77 -77 -98 -152 -182 -184 -153 -69
-355 -351 -350 -309 -286 -200 -232 -242 -245 -221 -211 -186 -186 -153 -149 -143 -142 -135 -112 -110 -115 -106 -124 -123 -123 -139 -149 -189 -257 -278 -202 -173 -154 -130 -125 -132 -167 -168 -142 -171 -224 -270 -336
-31 -480 -442 -415 -380 -285 -213 -260 -249 -237 -216 -199 -204 -198 -173 -149 -139 -130 -126 -127 -123 -117 -136 -154 -152 -154 -168 -221 -276 -319 -239 -188 -173 -162 -140 -144 -159 -151 -172 -181 -215 -218 -214
0 -298 -524 -520 -468 -369 -281 -261 -282 -280 -257 -261 -249 -224 -199 -172 -138 -136 -136 -138 -121 -125 -143 -149 -157 -166 -177 -242 -301 -330 -240 -238 -224 -195 -179 -165 -171 -183 -255 -288 -322 -321 -310
0 -242 -499 -450 -336 -358 -333 -272 -321 -312 -318 -339 -323 -256 -220 -194 -173 -162 -152 -158 -159 -170 -168 -196 -193 -196 -185 -214 -333 -381 -240 -245 -247 -215 -211 -287 -283 -253 -301 -314 -328 -344 -322
0 0 -420 -355 -264 -246 -335 -264 -334 -354 -371 -301 -312 -266 -235 -200 -189 -177 -165 -164 -166 -154 -184 -173 -185 -205 -221 -222 -359 -483 -334 -289 -255 -239 -227 -223 -332 -389 -443 -477 -331 -305 -242
0 0 -376 -348 -242 -278 -310 -282 -362 -335 -306 -287 -296 -274 -254 -233 -201 -175 -162 -148 -152 -155 -136 -148 -151 -177 -187 -264 -327 -513 -522 -342 -282 -246 -185 -176 -242 -339 -399 -478 -486 -472 -427
0 0 0 -364 -262 -173 -240 -256 -269 -285 -282 -268 -266 -258 -229 -212 -177 -181 -160 -165 -175 -175 -174 -164 -158 -161 -148 -168 -283 -435 -514 -519 -444 -264 -174 -212 -262 -308 -381 -451 -445 -448 -336
0 0 0 0 0 -419 -202 -186 -209 -253 -236 -232 -221 -197 -181 -178 -188 -175 -163 -170 -181 -201 -187 -172 -164 -149 -133 -126 -117 -240 -463 -561 -549 -516 -369 -252 -237 -246 -212 -198 -320 -334 -219
0 0 0 0 0 0 0 -469 -151 -198 -257 -223 -234 -223 -208 -216 -175 -174 -168 -180 -181 -182 -171 -163 -135 -123 -105 -107 -109 -93 -94 -180 -340 -326 -268 -238 -249 -246 -234 -203 -149 -103 -100
0 0 0 0 0 0 0 0 -206 -200 -100 -141 -227 -253 -218 -194 -176 -160 -170 -353 -451 -421 -321 -305 -223 -118 -127 -196 -200 -196 -191 -204 -248 -259 -199 -197 -235 -260 -243 -237 -208 -188 -177
Wind_Speed
25 22 27 13 14 32 33 38 37 36 36 34 34 31 30 28 26 23 22 22 21 20 19 18 18 17 19 17 19 19 18 18 18 20 19 19 19 19 18 18 17 16 16
27 24 28 25 21 21 32 38 39 38 37 34 33 31 30 28 26 24 24 22 22 21 19 18 18 19 18 19 19 18 19 19 20 18 19 22 21 20 18 17 16 15 16
24 28 27 41 17 19 35 39 40 38 37 35 34 29 28 25 27 25 25 24 23 22 21 19 17 18 19 18 18 18 18 19 19 19 17 20 13 20 19 18 18 16 16
19 21 27 30 44 37 27 38 39 39 38 39 38 36 32 31 30 28 26 25 24 23 22 21 20 18 19 18 18 18 18 18 19 21 20 14 12 13 20 19 19 18 18
24 23 26 32 25 35 38 37 40 39 40 42 40 35 36 33 30 30 27 27 24 24 23 22 21 20 19 19 19 19 19 19 17 19 20 16 17 16 15 15 16 17 17
25 25 21 16 39 31 38 36 34 39 44 45 43 42 39 37 33 31 30 29 27 25 24 23 22 21 20 20 20 20 20 19 19 19 20 19 17 16 16 17 16 15 16
17 21 22 21 18 23 26 33 32 34 37 47 46 40 40 40 35 31 32 29 28 26 23 23 23 20 21 22 21 21 21 21 21 21 20 20 19 18 17 17 17 16 16
23 23 25 22 20 21 22 23 24 29 22 41 47 45 42 42 40 37 34 32 30 27 26 24 25 24 24 23 23 22 22 22 22 22 21 20 20 20 19 19 17 16 16
18 27 23 26 20 20 22 23 25 25 27 22 32 41 45 45 41 39 36 35 32 29 28 26 25 25 25 25 25 24 23 23 22 22 23 23 21 21 21 20 19 18 14
25 19 23 26 26 22 20 23 33 29 25 27 30 41 48 47 45 41 39 37 35 33 30 28 26 25 24 25 26 26 26 25 24 23 24 24 23 23 22 21 20 18 15
29 37 26 24 26 20 19 21 32 34 32 31 30 35 48 48 46 44 42 38 37 35 33 31 28 25 24 24 26 27 27 27 27 26 26 25 25 25 24 22 19 17 14
30 28 25 12 19 24 21 19 23 32 33 32 30 27 38 42 48 46 43 40 39 37 36 34 28 17 25 23 25 28 29 28 28 28 29 28 27 27 27 25 21 18 14
29 28 24 12 20 22 22 21 20 24 28 31 28 27 30 38 48 48 45 41 39 40 39 36 12 8 13 23 26 29 30 30 29 29 30 30 30 30 28 25 22 17 12
26 29 24 22 14 21 21 20 18 23 26 26 27 27 25 24 22 38 34 16 22 42 40 34 9 9 6 18 30 30 30 30 30 30 30 31 30 30 29 27 23 19 17
22 22 25 26 22 14 21 20 19 21 25 26 25 24 25 26 29 30 25 22 16 26 43 13 16 16 9 16 32 33 29 28 30 30 29 31 31 30 29 27 21 17 18
27 25 24 27 27 18 25 21 20 19 22 24 25 25 26 26 27 27 25 24 20 28 20 18 30 34 36 30 26 22 24 26 29 32 28 30 30 30 31 29 27 24 22
30 29 29 30 30 26 13 23 21 19 20 24 24 24 24 25 26 27 28 26 22 31 28 18 36 37 35 35 25 22 24 26 26 26 29 30 32 27 29 26 24 24 25
32 32 32 33 34 33 21 14 17 20 22 28 26 22 23 24 26 28 28 28 28 30 30 27 36 27 26 28 26 20 18 21 27 30 29 30 33 32 29 25 26 25 24
35 35 35 36 36 37 31 14 17 19 21 24 25 21 20 21 22 25 26 27 29 32 31 30 25 15 16 17 21 17 19 25 26 27 29 35 35 32 25 26 27 28 26
35 37 37 37 40 41 35 18 18 19 20 21 23 22 19 18 19 21 22 25 27 32 32 29 22 15 14 14 18 19 19 20 20 19 27 33 34 29 19 20 21 25 20
32 33 34 35 36 36 32 23 19 22 22 18 22 23 21 17 17 19 20 21 23 28 30 29 25 20 14 13 14 20 20 17 16 21 19 26 19 22 23 19 17 16 10
26 27 29 30 31 32 32 29 26 22 18 18 20 23 22 20 17 16 18 20 22 27 27 25 25 21 19 13 12 17 23 19 15 12 9 11 13 10 13 14 15 15 15
23 23 23 22 22 24 28 31 28 25 20 17 17 20 21 21 20 18 17 17 21 27 25 25 25 25 22 21 12 12 17 23 22 22 12 22 21 17 13 12 11 11 13
21 20 19 17 17 18 20 22 26 25 21 18 15 16 18 19 20 18 18 18 19 24 25 22 22 21 21 21 20 16 19 14 13 25 31 26 16 10 11 11 11 12 13
21 18 17 16 15 15 16 18 23 25 23 19 16 15 16 19 19 21 21 21 22 21 21 21 21 20 20 21 20 18 16 17 15 14 14 12 13 14 16 15 14 13 16
21 19 17 16 14 13 12 13 16 18 20 18 18 18 17 18 21 20 24 24 25 27 30 26 24 23 22 19 18 19 22 21 18 15 17 17 17 17 17 16 15 14 16
Wind_Direction
161 161 162 201 215 221 218 209 207 206 201 197 195 203 202 202 195 196 197 188 186 184 186 170 172 173 166 173 164 160 163 170 179 166 168 171 159 163 168 169 182 181 178
164 166 167 168 170 226 225 214 210 209 207 210 210 212 211 211 208 207 201 203 191 185 194 196 181 165 171 166 166 172 156 156 167 174 168 132 143 159 169 179 190 200 195
164 170 171 183 215 180 186 218 214 215 216 216 213 221 220 227 218 209 196 194 187 183 188 192 203 189 173 177 178 172 184 153 160 177 182 150 178 140 155 166 178 186 176
166 169 175 176 190 203 233 224 221 220 218 214 205 211 218 218 213 208 206 202 192 188 190 191 196 197 178 182 191 190 195 195 169 163 174 219 230 210 104 129 152 161 161
172 173 176 180 191 230 228 229 224 225 220 213 211 224 215 220 221 213 217 210 208 201 198 193 187 190 187 194 189 192 199 194 213 194 186 221 204 195 217 207 182 159 149
177 178 178 197 230 233 229 231 232 228 219 211 198 208 211 213 222 221 211 211 208 203 202 194 186 185 195 188 183 178 194 213 209 208 209 206 216 218 213 203 196 210 192
187 180 181 183 204 222 229 232 232 233 231 209 206 192 195 208 225 229 211 219 209 203 187 188 188 173 180 199 194 188 201 191 200 200 206 212 212 219 220 212 207 206 216
185 186 184 185 190 196 212 221 225 232 220 192 216 216 196 213 215 212 217 212 213 212 206 189 196 197 200 192 188 194 193 187 187 192 206 213 214 214 214 214 215 199 209
188 186 188 186 191 196 202 216 226 226 230 210 237 231 203 208 208 221 216 214 220 229 229 201 196 197 194 196 198 197 195 198 189 192 201 208 216 214 214 214 209 202 186
254 188 186 186 186 190 203 224 234 233 224 231 237 232 212 213 216 225 214 216 220 220 231 213 196 191 189 188 198 206 204 203 202 200 202 214 220 221 214 213 206 195 189
253 238 193 184 184 189 218 222 234 235 235 233 235 238 223 218 221 212 214 211 219 217 218 219 203 189 187 186 194 205 215 210 208 210 210 211 225 227 222 209 198 195 189
251 248 246 214 188 185 189 207 224 234 236 235 234 232 237 235 214 216 213 210 212 214 218 220 200 174 190 184 190 203 210 206 206 211 216 219 224 225 228 221 209 207 202
252 249 249 217 186 185 187 189 220 228 232 234 232 232 237 238 224 222 226 207 208 217 220 215 183 183 174 187 195 204 211 213 214 215 218 222 226 228 227 219 215 207 202
257 250 251 247 199 187 189 193 206 229 231 230 230 232 231 231 229 240 244 220 191 225 217 205 206 199 217 184 205 207 209 212 215 217 217 222 221 223 225 221 217 215 220
262 257 252 249 250 199 188 197 201 229 231 231 228 227 231 235 240 243 244 244 210 197 224 205 195 192 211 205 206 211 205 205 213 214 214 221 222 224 224 221 213 211 219
259 262 259 254 253 244 187 192 201 211 226 229 227 231 233 234 237 241 243 246 242 251 253 198 198 204 211 202 196 193 196 202 210 219 215 219 222 224 224 223 223 223 226
263 263 262 258 257 258 227 191 200 222 222 231 229 227 228 232 236 240 244 245 243 250 253 250 204 207 208 210 198 198 201 206 208 211 217 221 225 217 223 221 221 224 228
265 265 263 257 255 253 255 220 214 221 230 237 235 230 227 232 238 241 243 245 247 248 251 255 247 205 201 203 202 203 207 208 214 218 218 220 225 224 221 221 225 226 228
266 265 265 259 258 251 253 226 204 211 220 230 232 225 221 226 233 237 241 244 246 248 251 254 258 235 213 208 205 208 207 211 215 216 218 224 226 222 217 220 225 230 232
269 268 267 264 256 247 249 229 201 212 211 218 222 226 223 218 223 234 237 242 246 248 250 254 257 238 229 225 210 207 206 209 211 213 215 221 222 218 213 216 221 228 231
274 275 271 266 263 252 245 233 219 199 193 227 230 232 230 222 225 235 239 239 244 249 251 256 260 262 253 235 217 204 203 207 208 209 209 212 210 213 217 221 227 232 283
280 284 276 270 265 251 242 238 236 240 227 231 230 232 232 232 227 227 237 242 246 249 253 257 262 265 267 255 247 205 202 205 211 221 255 255 285 245 228 230 234 242 245
281 287 283 277 267 255 243 239 243 237 230 226 227 231 234 233 236 233 233 237 244 248 252 256 261 266 270 272 248 246 206 205 206 206 213 291 294 294 287 246 251 275 294
280 287 290 279 265 263 252 250 240 235 229 227 221 225 226 230 233 235 238 241 246 249 252 256 260 266 269 272 275 274 271 226 229 214 221 220 224 253 258 282 279 282 285
275 285 290 279 270 269 263 254 245 233 228 228 222 218 225 231 236 241 245 247 250 250 252 257 262 265 269 271 273 277 282 283 278 276 281 273 270 275 283 278 272 279 294
269 277 281 274 270 268 268 258 248 238 230 230 231 230 232 236 239 241 246 253 259 259 258 263 264 266 269 279 276 276 278 285 289 288 290 294 295 295 296 292 287 284 287